Notices

What's New in latest Release from April 7th, 2021:

- Updated Glossary, including Speed of Maximum Gust, and Total Hourly Precipitation

- Updated national and regional climate services offices contacts and prices information

- Addition of station inventory lists for 1981-2010, 1971-2000, and 1961-1990 Normals.

If you haven't already, please take our survey and provide feedback about our website: https://eccc.sondage-survey.ca/f/LanguageSelection.aspx?s=442ca660-fcf1-47c0-95a9-59707d6fd709

Hourly Data Report for March 11, 2019

MIRAMICHI RCS
NEW BRUNSWICK
Current Station Operator: ECCC - MSC

47°00'34.000" N
65°27'54.000" W
33.00 m
8100989
71744
ACQ

Download Data

Hourly Data (March 2019)
Hourly Data Report for March 11, 2019
TIME
LST
Temp Definition
°C
Dew Point Definition
°C
Rel Hum Definition
%
Precip. Amount Definition
mm

Wind Dir Definition
10's deg

Wind Spd Definition
km/h
Visibility Definition
km
Stn Press Definition
kPa
Hmdx Definition


Wind Chill Definition


Weather Definition


00:00 -3.8 -4.9 92 1.1 12 17   101.35   -10 LegendNANA
01:00 -3.7 -4.8 92 0.6 11 17   101.07   -9 LegendNANA
02:00 -3.2 -4.6 90 1.3 9 24   100.70   -10 LegendNANA
03:00 -3.4 -4.3 94 1.3 6 10   100.53   -7 LegendNANA
04:00 -3.3 -4.1 95 1.5 3 9   100.27   -7 LegendNANA
05:00 -2.5 -3.0 96 0.2 4 8   100.05   -6 LegendNANA
06:00 -2.0 -2.6 96 0.6 34 3   99.96   -3 LegendNANA
07:00 -2.3 -3.0 95 0.2 30 8   99.88   -5 LegendNANA
08:00 -2.3 -3.5 92 0.0 27 10   99.85   -6 LegendNANA
09:00 -2.3 -3.8 89 0.0 24 13   99.85   -7 LegendNANA
10:00 -1.1 -3.0 87 0.3 24 19   99.86   -6 LegendNANA
11:00 1.3 -1.4 82 0.0 23 21   99.77     LegendNANA
12:00 2.3 -0.6 81 0.0 23 20   99.78     LegendNANA
13:00 2.7 -0.7 79 0.0 23 27   99.74     LegendNANA
14:00 2.9 -0.3 79 0.0 23 24   99.67     LegendNANA
15:00 3.5 -0.8 73 0.0 24 30   99.59     LegendNANA
16:00 3.4 0.7 83 0.0 26 15   99.53     LegendNANA
17:00 2.0 -0.2 85 0.0 27 21   99.56     LegendNANA
18:00 2.4 -1.7 74 0.0 25 22   99.61     LegendNANA
19:00 1.2 -2.5 76 0.0 24 20   99.70     LegendNANA
20:00 0.5 -3.2 77 0.0 25 19   99.75     LegendNANA
21:00 -0.3 -4.0 76 0.0 25 12   99.79   -4 LegendNANA
22:00 -0.9 -4.4 77 0.0 25 13   99.78   -5 LegendNANA
23:00 -1.1 -4.0 81 0.0 24 17   99.76   -6 LegendNANA

Notes on Data Quality.

Legend

  • E = Estimated
  • M = Missing
  • NA = Not Available*
  • [empty] = Indicates an unobserved value
Date modified: